Reflectivity
-20 -20 -20 -20 -20 -20 -20 -20 -20 -20 -20 -20 -20 -20 -20 -20 -20 -20 -20 -20 -20 -20 -20 -20 -20 -20 -20 -20 -20 -20 -20 -20
-20 -20 -20 -20 -20 -20 -20 -20 -20 -20 -20 -20 -20 -20 -20 -20 -20 -20 -20 -20 -20 -20 -20 -20 -20 -20 -20 -20 -20 -20 -20 -20
3 -15 -20 -20 -20 -20 -20 -20 -20 -20 -20 -20 -20 -20 -20 -20 -20 -20 -20 -20 -20 -20 -20 -20 -20 -20 -20 -20 -20 -20 -20 -20
-20 14 -2 -20 -20 -20 -20 -20 -20 -20 -20 -20 -20 -20 -20 -20 -20 -20 -20 -20 -20 -20 -20 -20 -20 -20 -20 -20 -20 -20 -20 -12
-20 -20 4 -12 6 -20 -20 -20 -20 -20 -20 -20 -20 -20 -20 -20 -16 -20 -20 -20 -20 -20 -20 -20 -20 -20 -20 -20 -20 -20 -20 -6
-20 -17 -20 -16 21 9 4 -20 -20 -20 -20 -20 -20 -20 -20 -20 -20 -20 -20 -20 -20 -20 -20 -20 -20 -20 -20 -17 -20 -20 -20 29
-16 39 10 -11 -12 -20 13 -20 -20 -20 -20 -20 -20 -20 -20 -20 -20 -11 -20 -20 -20 -20 -12 -10 7 -20 -20 -2 -20 -20 -20 -9
-15 -11 -18 24 8 8 12 -17 -20 -20 -20 -12 -20 -20 -20 -20 -20 -20 -20 -20 -20 -20 -20 -16 2 -14 -17 -20 -20 -20 -20 -20
-19 -13 -15 20 36 9 38 -10 -20 -11 -20 -20 -20 -20 -20 -20 -20 -20 -20 -20 -20 -20 -20 -20 -14 -20 -19 -20 -20 -20 -20 -20
-20 -20 -2 4 -20 -3 -9 -20 -20 -20 -20 -20 -20 -20 -20 -20 -20 -20 -20 -20 -20 -20 -20 -20 -19 -8 -20 -20 -20 -20 -20 -20
-20 -20 -20 -20 -17 -3 8 -12 -20 -20 -20 -20 -20 -20 -20 -16 -20 -20 -20 -20 -10 -20 -20 -20 -20 -20 -20 -20 -20 -20 -20 -16
-20 -20 -20 -20 -20 -20 -20 -20 -20 -20 -20 -20 -20 -20 -20 -20 -20 -20 -20 -20 -20 -20 -20 -20 -20 -20 -20 -20 -20 -20 -20 2
-20 -20 -20 -20 -20 -20 -20 -20 -20 -20 -20 -20 9 -18 -20 -20 -20 -10 -20 -20 -20 -20 -20 -20 -20 -20 -19 -20 -20 -11 5 4
-20 -20 -20 -20 -20 -20 -20 -20 -20 -20 -20 -20 -20 -20 -8 -20 -20 -8 -20 -20 -20 -3 -20 -20 -20 8 -18 -19 -8 -20 -16 -20
-20 -20 -20 -20 -20 -20 -20 -20 -20 -20 -20 -20 -20 -9 -20 36 -15 -20 -8 -16 -15 -5 -8 -20 -20 -5 10 -20 -20 -20 -20 -13
-20 -20 -20 -20 -20 -20 -20 -20 -20 -20 -20 -20 -20 -20 -20 -19 36 -6 19 -20 -6 -20 -15 -20 -9 -3 8 -20 -20 -20 -20 -20
-20 -20 -20 -20 -20 -20 -20 -20 -20 -20 -20 -20 -20 -20 -20 -20 -20 -20 4 11 3 -20 -20 2 -20 -20 -20 -17 -20 -20 -20 0
-20 -20 -20 -20 -20 -20 -20 -20 -20 -20 -20 -20 -20 -20 -20 -20 16 -1 -10 -2 21 -4 -4 -4 -17 -4 -20 -20 -20 -9 -20 -9
-20 -20 -20 -20 -20 -20 -20 -20 -20 -20 -20 -20 -20 -20 -20 -20 0 -20 -13 -20 -20 16 -12 5 7 0 -20 -20 -20 -20 -20 -20
-20 -20 -20 -20 -20 -20 -20 -20 -20 -20 -20 -20 -20 -20 -20 -20 1 -20 38 14 -20 -14 -5 17 -5 8 -18 -20 -15 -5 -20 -20
Wind_Speed
12 10 10 10 10 11 11 11 11 12 12 12 13 13 13 13 12 11 10 9 7 6 6 7 7 7 7 6 6 6 6 6
11 11 10 9 8 10 11 10 11 10 10 10 10 11 11 11 10 10 10 8 9 9 7 8 8 7 7 7 7 6 7 8
4 11 10 9 9 8 9 10 10 10 9 9 8 7 9 11 11 12 11 9 8 7 8 7 7 6 7 7 7 4 6 4
6 5 10 10 8 10 8 8 6 6 7 9 7 8 9 10 12 11 11 10 8 8 8 7 6 5 5 7 4 6 5 2
11 9 4 2 6 8 6 5 6 6 8 8 8 7 5 7 5 7 6 7 5 6 6 5 7 6 5 6 6 6 4 4
12 11 10 6 5 4 8 8 8 7 8 9 7 5 6 5 5 8 7 6 8 6 6 8 8 8 8 7 6 6 3 1
6 9 12 12 11 8 6 7 8 7 10 11 8 8 6 6 5 6 8 8 8 7 6 8 8 7 5 4 6 5 3 1
4 1 9 10 10 11 6 4 7 8 6 5 13 8 8 6 7 7 8 8 8 8 6 6 5 4 6 5 5 3 4 2
9 8 4 5 8 7 6 5 6 8 8 9 8 10 7 8 5 6 5 8 9 7 5 5 6 5 5 5 4 5 4 5
8 8 9 8 7 5 4 5 5 6 6 8 13 11 12 6 6 5 4 5 8 7 5 4 4 5 4 4 4 5 6 6
7 8 8 9 8 6 6 7 5 6 6 6 12 14 12 10 9 8 6 4 4 8 7 7 5 4 5 5 4 5 5 5
6 6 6 7 6 6 4 5 8 7 7 8 8 12 14 11 8 10 10 5 4 4 7 5 5 7 7 7 6 5 5 5
8 6 6 5 5 6 6 4 6 5 8 9 9 9 14 13 10 9 10 11 11 9 5 6 4 4 4 2 2 3 5 5
7 9 9 7 7 8 7 8 7 8 9 11 13 9 12 13 12 10 12 10 13 13 7 4 5 5 3 4 3 3 5 5
9 9 10 9 9 8 7 8 8 8 7 8 8 7 10 15 13 12 10 9 10 13 12 11 9 7 8 5 3 5 3 4
9 10 11 10 11 10 11 9 10 9 10 11 12 11 15 15 15 13 12 10 12 13 11 12 10 10 7 8 5 4 4 2
9 11 11 11 12 11 9 11 10 10 12 17 16 14 15 14 16 14 13 11 13 14 15 15 12 11 11 9 10 5 4 2
8 10 12 13 13 12 12 13 14 12 12 12 13 13 12 14 17 16 14 14 13 13 15 16 15 13 10 10 9 9 7 4
11 12 13 13 14 14 14 15 15 17 15 12 15 13 13 14 16 16 14 14 14 14 15 16 17 14 14 12 7 7 3 5
14 15 15 16 17 16 14 15 10 12 13 13 13 14 14 18 12 16 17 15 15 14 13 13 16 14 16 13 10 9 8 8
Wind_Direction
138 156 151 151 160 155 152 158 162 166 167 168 167 168 172 176 179 184 194 184 198 205 189 185 184 188 203 209 224 250 255 276
138 149 160 165 166 158 159 162 163 166 169 169 168 169 175 177 179 187 198 193 202 194 188 188 191 195 208 218 231 260 258 274
179 157 166 169 171 167 160 165 169 164 162 160 152 184 183 183 193 190 199 195 196 189 194 185 187 198 214 222 234 238 254 259
141 116 162 172 182 157 180 176 183 187 181 168 188 201 180 195 191 196 191 188 186 178 186 177 185 204 193 207 227 251 249 291
141 137 153 198 220 159 178 181 185 191 191 180 198 196 204 196 185 191 183 180 194 184 176 194 207 225 207 186 216 235 244 112
158 156 157 184 241 207 181 187 185 185 201 193 184 212 206 184 189 179 184 181 196 197 196 192 208 214 243 183 211 219 237 82
149 189 170 172 220 221 217 196 179 189 188 193 202 193 210 201 194 189 188 194 183 199 200 194 203 204 229 209 218 231 274 307
111 155 196 189 195 226 225 201 178 194 213 206 196 207 197 208 196 200 183 190 190 190 199 203 190 180 200 206 231 240 240 227
34 18 48 272 201 230 250 272 225 190 186 203 235 211 219 200 194 205 201 183 188 187 199 170 186 188 204 202 202 214 219 229
26 26 358 347 347 261 204 238 263 228 192 187 201 219 217 202 203 229 246 193 179 188 181 186 204 177 183 197 186 183 209 219
11 20 5 346 341 337 323 283 232 247 219 204 198 216 205 220 198 212 230 265 185 182 193 186 191 178 183 182 177 188 200 197
28 21 357 342 316 303 289 285 256 235 235 219 207 203 215 198 217 188 194 220 243 239 183 188 171 178 200 189 169 182 200 181
11 350 2 351 327 327 320 299 296 259 226 234 214 208 201 213 206 181 190 196 218 232 190 183 194 187 134 142 133 178 189 195
359 3 2 357 343 341 314 306 296 296 304 297 221 228 207 202 208 198 193 197 201 216 214 163 171 190 166 112 193 224 213 215
0 1 352 351 347 328 322 318 307 298 276 275 254 233 218 206 209 208 192 207 200 211 205 192 190 192 182 152 172 211 126 198
1 357 348 346 352 339 328 313 300 300 301 301 304 282 232 211 215 211 197 197 206 209 208 203 189 192 193 215 216 151 172 154
6 348 344 349 347 337 328 313 311 315 308 306 300 295 282 220 201 208 205 207 211 204 208 203 201 197 199 189 213 232 221 158
359 352 344 343 340 329 321 309 301 298 293 292 295 292 288 269 206 202 201 204 216 206 210 206 207 204 196 200 194 192 199 180
357 357 343 338 331 325 321 312 302 291 288 283 280 283 282 272 243 213 202 195 206 210 204 206 208 206 192 195 190 208 184 199
359 353 341 335 329 324 315 304 295 287 280 278 275 273 275 281 266 225 217 199 203 213 218 206 202 206 202 184 184 189 194 196